GEC8225 LEBB-EGNM

Flight info

Callsign GEC8225
Flight time 1h 37m
Altitude 36000
Route BISKA5A BISKA DCT BADRU DCT BELEN DCT ULNAB DCT SUGOM DCT TERPO UN867 AVANT UM184 HEMEL T420 TNT N57 DENBY DCT
Aircraft B77L/H-SDE1E2E3FGHIJ2J3J4J5M1RWXY/LB1D1

Departure

Time 2026-04-28 14:05
Airport Bilbao Airport (LEBB)

Arrival

Time 2026-04-28 15:42
Airport Leeds Bradford Airport (EGNM)
Time Latitude Longitude Altitude Speed Heading
2026-04-28 13:36 43.30219 -2.90272 127 ft 0 kts 329°
2026-04-28 13:54 43.30216 -2.90270 128 ft 3 kts 329°
2026-04-28 13:55 43.30198 -2.90255 150 ft 4 kts 314°
2026-04-28 13:55 43.30193 -2.90230 120 ft 4 kts 246°
2026-04-28 13:55 43.30205 -2.90199 132 ft 4 kts 239°
2026-04-28 13:55 43.30219 -2.90168 130 ft 3 kts 238°
2026-04-28 13:56 43.30221 -2.90163 131 ft 0 kts 237°
2026-04-28 13:59 43.30220 -2.90164 130 ft 0 kts 237°
2026-04-28 13:59 43.30217 -2.90170 129 ft 1 kts 237°
2026-04-28 13:59 43.30210 -2.90186 132 ft 3 kts 238°
2026-04-28 13:59 43.30198 -2.90212 132 ft 4 kts 238°
2026-04-28 14:00 43.30182 -2.90247 132 ft 5 kts 239°
2026-04-28 14:00 43.30163 -2.90290 127 ft 6 kts 239°
2026-04-28 14:00 43.30141 -2.90340 123 ft 7 kts 239°
2026-04-28 14:00 43.30115 -2.90397 128 ft 7 kts 231°
2026-04-28 14:01 43.30068 -2.90419 132 ft 7 kts 173°
2026-04-28 14:01 43.30038 -2.90362 125 ft 8 kts 112°
2026-04-28 14:01 43.30011 -2.90285 127 ft 9 kts 116°
2026-04-28 14:01 43.29981 -2.90199 127 ft 11 kts 116°
2026-04-28 14:02 43.29946 -2.90103 127 ft 12 kts 117°
2026-04-28 14:02 43.29904 -2.89990 125 ft 15 kts 117°
2026-04-28 14:02 43.29850 -2.89844 125 ft 17 kts 117°
2026-04-28 14:02 43.29803 -2.89714 129 ft 15 kts 116°
2026-04-28 14:03 43.29762 -2.89610 127 ft 9 kts 129°
2026-04-28 14:03 43.29708 -2.89603 125 ft 9 kts 211°
2026-04-28 14:03 43.29657 -2.89655 123 ft 10 kts 217°
2026-04-28 14:03 43.29623 -2.89732 126 ft 10 kts 285°
2026-04-28 14:04 43.29633 -2.89761 124 ft 1 kts 296°
2026-04-28 14:04 43.29646 -2.89796 127 ft 18 kts 296°
2026-04-28 14:04 43.29827 -2.90290 129 ft 101 kts 297°
2026-04-28 14:04 43.30258 -2.91462 137 ft 169 kts 297°
2026-04-28 14:05 43.30819 -2.92968 738 ft 181 kts 297°
2026-04-28 14:05 43.31402 -2.94570 1479 ft 194 kts 298°
2026-04-28 14:05 43.32028 -2.96305 2086 ft 211 kts 300°
2026-04-28 14:05 43.32934 -2.97972 2755 ft 225 kts 317°
2026-04-28 14:06 43.34122 -2.99405 3603 ft 230 kts 320°
2026-04-28 14:06 43.35332 -3.00859 4536 ft 234 kts 316°
2026-04-28 14:06 43.36511 -3.02488 5295 ft 248 kts 313°
2026-04-28 14:06 43.37712 -3.04358 5840 ft 271 kts 309°
2026-04-28 14:07 43.38952 -3.06366 6768 ft 277 kts 309°
2026-04-28 14:07 43.40261 -3.08248 7717 ft 279 kts 322°
2026-04-28 14:07 43.42031 -3.09376 8645 ft 286 kts 346°
2026-04-28 14:07 43.44015 -3.09591 9708 ft 290 kts
2026-04-28 14:08 43.46022 -3.09037 10556 ft 300 kts 17°
2026-04-28 14:08 43.47967 -3.07702 10955 ft 330 kts 36°
2026-04-28 14:08 43.49560 -3.05226 11189 ft 364 kts 61°
2026-04-28 14:08 43.50352 -3.01823 11598 ft 381 kts 78°
2026-04-28 14:09 43.50950 -2.98185 12395 ft 394 kts 76°
2026-04-28 14:09 43.51602 -2.94497 13610 ft 398 kts 76°
2026-04-28 14:09 43.52453 -2.90886 14445 ft 401 kts 62°
2026-04-28 14:09 43.54163 -2.87826 15284 ft 409 kts 41°
2026-04-28 14:10 43.56484 -2.85541 16278 ft 412 kts 26°
2026-04-28 14:10 43.59177 -2.84224 17236 ft 414 kts 11°
2026-04-28 14:10 43.62014 -2.83405 18208 ft 420 kts
2026-04-28 14:10 43.64892 -2.82532 19007 ft 427 kts 11°
2026-04-28 14:11 43.67803 -2.81582 19832 ft 433 kts 11°
2026-04-28 14:11 43.70751 -2.80608 20649 ft 438 kts 11°
2026-04-28 14:11 43.73744 -2.79645 21440 ft 444 kts 11°
2026-04-28 14:11 43.76777 -2.78671 22232 ft 451 kts 11°
2026-04-28 14:12 43.79851 -2.77674 23024 ft 457 kts 11°
2026-04-28 14:12 43.82970 -2.76656 23719 ft 464 kts 11°
2026-04-28 14:12 43.86134 -2.75623 24348 ft 470 kts 11°
2026-04-28 14:12 43.89321 -2.74582 24996 ft 475 kts 11°
2026-04-28 14:13 43.92563 -2.73590 25635 ft 479 kts
2026-04-28 14:13 43.95820 -2.72845 26239 ft 483 kts
2026-04-28 14:13 43.99179 -2.72204 26848 ft 488 kts
2026-04-28 14:13 44.02563 -2.71604 27429 ft 494 kts
2026-04-28 14:14 44.06005 -2.70998 28002 ft 500 kts
2026-04-28 14:14 44.09469 -2.70371 28564 ft 505 kts
2026-04-28 14:14 44.12967 -2.69718 29119 ft 510 kts
2026-04-28 14:14 44.16496 -2.69042 29637 ft 514 kts
2026-04-28 14:15 44.20049 -2.68349 30211 ft 517 kts
2026-04-28 14:15 44.23604 -2.67649 30827 ft 515 kts
2026-04-28 14:15 44.27146 -2.66948 31532 ft 512 kts
2026-04-28 14:15 44.30666 -2.66251 32204 ft 510 kts
2026-04-28 14:16 44.34169 -2.65560 32860 ft 508 kts
2026-04-28 14:16 44.37662 -2.64872 33506 ft 506 kts
2026-04-28 14:16 44.41143 -2.64187 34115 ft 505 kts
2026-04-28 14:16 44.44623 -2.63502 34593 ft 504 kts
2026-04-28 14:17 44.48093 -2.62818 35143 ft 502 kts
2026-04-28 14:17 44.51540 -2.62137 35712 ft 499 kts
2026-04-28 14:17 44.54981 -2.61457 36052 ft 501 kts
2026-04-28 14:17 44.58449 -2.60774 36021 ft 504 kts
2026-04-28 14:18 44.65302 -2.59413 36018 ft 497 kts
2026-04-28 14:18 44.72129 -2.58055 36026 ft 495 kts
2026-04-28 14:19 44.78954 -2.56696 36027 ft 496 kts
2026-04-28 14:19 44.85785 -2.55333 36030 ft 496 kts
2026-04-28 14:20 44.92637 -2.53962 36030 ft 497 kts
2026-04-28 14:20 44.99492 -2.52586 36039 ft 498 kts
2026-04-28 14:21 45.06364 -2.51203 36034 ft 499 kts
2026-04-28 14:21 45.13238 -2.49817 36036 ft 499 kts
2026-04-28 14:22 45.20120 -2.48425 36043 ft 500 kts
2026-04-28 14:22 45.27008 -2.47029 36039 ft 500 kts
2026-04-28 14:23 45.33895 -2.45629 36038 ft 500 kts
2026-04-28 14:23 45.40792 -2.44231 36047 ft 500 kts
2026-04-28 14:24 45.47693 -2.43376 36045 ft 497 kts 359°
2026-04-28 14:24 45.54535 -2.42790 36045 ft 496 kts 359°
2026-04-28 14:25 45.61423 -2.42179 36054 ft 496 kts 359°
2026-04-28 14:25 45.68314 -2.41523 36054 ft 496 kts 359°
2026-04-28 14:26 45.75207 -2.40853 36088 ft 496 kts 359°
2026-04-28 14:26 45.82089 -2.40184 36062 ft 496 kts 359°
2026-04-28 14:27 45.88966 -2.39516 36055 ft 495 kts 359°
2026-04-28 14:27 45.95839 -2.38848 36074 ft 495 kts 359°
2026-04-28 14:28 46.02709 -2.38178 36063 ft 495 kts 359°
2026-04-28 14:28 46.09573 -2.37142 36047 ft 500 kts
2026-04-28 14:29 46.16366 -2.34838 36088 ft 502 kts
2026-04-28 14:29 46.23112 -2.32406 36065 ft 503 kts
2026-04-28 14:30 46.29924 -2.29997 36060 ft 504 kts
2026-04-28 14:30 46.36742 -2.27626 36081 ft 504 kts
2026-04-28 14:31 46.43564 -2.25260 36066 ft 504 kts
2026-04-28 14:31 46.50388 -2.22884 36050 ft 504 kts
2026-04-28 14:32 46.56057 -2.20904 36083 ft 504 kts
2026-04-28 14:32 46.62863 -2.18520 36056 ft 503 kts 10°
2026-04-28 14:33 46.69698 -2.16119 36051 ft 501 kts 10°
2026-04-28 14:33 46.76419 -2.13752 36053 ft 500 kts 10°
2026-04-28 14:34 46.86587 -2.10161 36048 ft 499 kts 10°
2026-04-28 14:35 46.93284 -2.07788 36048 ft 499 kts 10°
2026-04-28 14:35 47.00030 -2.05392 36060 ft 498 kts 10°
2026-04-28 14:36 47.06771 -2.02990 36042 ft 499 kts 10°
2026-04-28 14:36 47.13527 -2.00577 36036 ft 500 kts 10°
2026-04-28 14:37 47.20300 -1.98152 36044 ft 501 kts 11°
2026-04-28 14:37 47.27066 -1.95722 36021 ft 500 kts 11°
2026-04-28 14:38 47.33800 -1.93191 36021 ft 500 kts 14°
2026-04-28 14:38 47.40234 -1.89276 36047 ft 501 kts 24°
2026-04-28 14:39 47.46456 -1.84694 36063 ft 499 kts 24°
2026-04-28 14:39 47.52663 -1.80131 36066 ft 498 kts 24°
2026-04-28 14:40 47.58878 -1.75621 36089 ft 496 kts 24°
2026-04-28 14:40 47.65077 -1.71134 36082 ft 496 kts 24°
2026-04-28 14:41 47.71269 -1.66637 36069 ft 496 kts 24°
2026-04-28 14:41 47.77469 -1.62118 36077 ft 497 kts 24°
2026-04-28 14:42 47.83675 -1.57583 36096 ft 498 kts 25°
2026-04-28 14:42 47.89897 -1.53023 36087 ft 498 kts 25°
2026-04-28 14:43 47.96120 -1.48451 36083 ft 499 kts 25°
2026-04-28 14:43 48.02563 -1.44791 36093 ft 494 kts
2026-04-28 14:44 48.09367 -1.43833 36094 ft 490 kts 355°
2026-04-28 14:44 48.16134 -1.44398 36098 ft 490 kts 354°
2026-04-28 14:45 48.22949 -1.45005 36104 ft 491 kts 355°
2026-04-28 14:45 48.29766 -1.45535 36097 ft 491 kts 354°
2026-04-28 14:46 48.36583 -1.46024 36108 ft 490 kts 355°
2026-04-28 14:46 48.43391 -1.46509 36123 ft 490 kts 356°
2026-04-28 14:47 48.50196 -1.47000 36133 ft 489 kts 356°
2026-04-28 14:47 48.56993 -1.47493 36126 ft 489 kts 356°
2026-04-28 14:48 48.63777 -1.47986 36134 ft 488 kts 356°
2026-04-28 14:48 48.70520 -1.48479 36137 ft 487 kts 357°
2026-04-28 14:49 48.77292 -1.48974 36144 ft 487 kts 357°
2026-04-28 14:49 48.84056 -1.49470 36158 ft 486 kts 356°
2026-04-28 14:50 48.90822 -1.49844 36167 ft 486 kts
2026-04-28 14:50 48.97571 -1.49141 36164 ft 487 kts
2026-04-28 14:51 49.04322 -1.48255 36165 ft 487 kts
2026-04-28 14:51 49.11074 -1.47414 36149 ft 486 kts
2026-04-28 14:52 49.17815 -1.46614 36164 ft 486 kts
2026-04-28 14:52 49.24546 -1.45822 36165 ft 485 kts
2026-04-28 14:53 49.31266 -1.45027 36171 ft 484 kts
2026-04-28 14:53 49.37976 -1.44230 36181 ft 482 kts
2026-04-28 14:54 49.44649 -1.43433 36178 ft 481 kts
2026-04-28 14:54 49.51288 -1.42638 36189 ft 481 kts
2026-04-28 14:55 49.57950 -1.41840 36188 ft 480 kts
2026-04-28 14:55 49.64601 -1.41146 36179 ft 479 kts
2026-04-28 14:56 49.71246 -1.40585 36178 ft 478 kts
2026-04-28 14:56 49.77886 -1.40011 36179 ft 477 kts
2026-04-28 14:57 49.84496 -1.39414 36179 ft 475 kts
2026-04-28 14:57 49.91091 -1.38814 36195 ft 474 kts
2026-04-28 14:58 49.97672 -1.38213 36195 ft 474 kts
2026-04-28 14:58 50.04211 -1.37078 36201 ft 472 kts 11°
2026-04-28 14:59 50.10709 -1.35421 36207 ft 476 kts 11°
2026-04-28 14:59 50.17279 -1.33742 36212 ft 480 kts 12°
2026-04-28 15:00 50.23871 -1.32099 36213 ft 477 kts 11°
2026-04-28 15:00 50.30356 -1.30489 36209 ft 473 kts 12°
2026-04-28 15:01 50.36843 -1.28872 36217 ft 472 kts 11°
2026-04-28 15:01 50.43335 -1.27248 36214 ft 473 kts 11°
2026-04-28 15:02 50.49697 -1.24856 36218 ft 469 kts 22°
2026-04-28 15:02 50.55561 -1.20465 36220 ft 466 kts 33°
2026-04-28 15:03 50.61018 -1.14953 36226 ft 466 kts 34°
2026-04-28 15:03 50.66470 -1.09405 36206 ft 466 kts 34°
2026-04-28 15:04 50.71935 -1.03917 36214 ft 464 kts 34°
2026-04-28 15:04 50.77375 -0.98461 36222 ft 463 kts 34°
2026-04-28 15:05 50.82994 -0.93497 36222 ft 464 kts 27°
2026-04-28 15:05 50.89077 -0.90008 36215 ft 466 kts 20°
2026-04-28 15:06 50.95264 -0.86891 36225 ft 466 kts 20°
2026-04-28 15:06 51.01445 -0.83742 36237 ft 467 kts 21°
2026-04-28 15:07 51.07615 -0.80548 36255 ft 466 kts 21°
2026-04-28 15:07 51.13782 -0.77331 36261 ft 466 kts 21°
2026-04-28 15:08 51.19948 -0.74105 36267 ft 466 kts 21°
2026-04-28 15:08 51.26114 -0.70872 36267 ft 466 kts 21°
2026-04-28 15:09 51.32277 -0.67631 36283 ft 467 kts 21°
2026-04-28 15:09 51.38401 -0.64403 36243 ft 466 kts 21°
2026-04-28 15:10 51.44582 -0.61136 36260 ft 463 kts 21°
2026-04-28 15:10 51.50639 -0.57924 36263 ft 461 kts 21°
2026-04-28 15:11 51.56731 -0.54685 36267 ft 460 kts 21°
2026-04-28 15:11 51.62800 -0.51448 36264 ft 460 kts 22°
2026-04-28 15:12 51.68868 -0.48202 36381 ft 459 kts 22°
2026-04-28 15:12 51.74920 -0.44957 36391 ft 458 kts 22°
2026-04-28 15:12 51.78018 -0.43776 36283 ft 462 kts
2026-04-28 15:13 51.81249 -0.44000 36276 ft 471 kts 355°
2026-04-28 15:13 51.84435 -0.45449 36280 ft 481 kts 341°
2026-04-28 15:13 51.87358 -0.48150 36311 ft 488 kts 332°
2026-04-28 15:14 51.93066 -0.54115 36293 ft 487 kts 333°
2026-04-28 15:14 51.98872 -0.59791 36296 ft 487 kts 334°
2026-04-28 15:15 52.04697 -0.65447 36295 ft 488 kts 334°
2026-04-28 15:15 52.10503 -0.71138 36314 ft 488 kts 334°
2026-04-28 15:16 52.16275 -0.76829 36318 ft 488 kts 334°
2026-04-28 15:16 52.19181 -0.79712 35991 ft 491 kts 334°
2026-04-28 15:16 52.22093 -0.82605 35439 ft 488 kts 335°
2026-04-28 15:16 52.24972 -0.85473 34912 ft 482 kts 335°
2026-04-28 15:17 52.27813 -0.88299 34402 ft 476 kts 336°
2026-04-28 15:17 52.30628 -0.91093 33779 ft 471 kts 338°
2026-04-28 15:17 52.33420 -0.93863 33205 ft 466 kts 338°
2026-04-28 15:17 52.36180 -0.96606 32625 ft 462 kts 338°
2026-04-28 15:18 52.38914 -0.99327 32059 ft 458 kts 339°
2026-04-28 15:18 52.41622 -1.02027 31510 ft 454 kts 339°
2026-04-28 15:18 52.44299 -1.04700 30958 ft 450 kts 339°
2026-04-28 15:18 52.46958 -1.07359 30420 ft 446 kts 339°
2026-04-28 15:19 52.49595 -1.10002 29800 ft 442 kts 339°
2026-04-28 15:19 52.52203 -1.12641 29136 ft 438 kts 338°
2026-04-28 15:19 52.54786 -1.15267 28531 ft 435 kts 338°
2026-04-28 15:19 52.57346 -1.17870 27943 ft 431 kts 338°
2026-04-28 15:20 52.59887 -1.20443 27373 ft 427 kts 338°
2026-04-28 15:20 52.62408 -1.22994 26802 ft 424 kts 338°
2026-04-28 15:20 52.64909 -1.25527 26248 ft 420 kts 338°
2026-04-28 15:20 52.67391 -1.28046 25698 ft 417 kts 337°
2026-04-28 15:21 52.69854 -1.30551 25163 ft 415 kts 337°
2026-04-28 15:21 52.72301 -1.33043 24635 ft 411 kts 337°
2026-04-28 15:21 52.73912 -1.34682 24346 ft 409 kts 337°
2026-04-28 15:21 52.76326 -1.37140 23775 ft 407 kts 336°
2026-04-28 15:22 52.78725 -1.39585 23183 ft 404 kts 336°
2026-04-28 15:22 52.81110 -1.42020 22592 ft 402 kts 336°
2026-04-28 15:22 52.83482 -1.44444 22012 ft 400 kts 336°
2026-04-28 15:22 52.85841 -1.46857 21436 ft 397 kts 335°
2026-04-28 15:23 52.88183 -1.49257 20882 ft 395 kts 335°
2026-04-28 15:23 52.90513 -1.51649 20337 ft 393 kts 335°
2026-04-28 15:23 52.92828 -1.54028 19806 ft 390 kts 335°
2026-04-28 15:23 52.95128 -1.56394 19278 ft 388 kts 335°
2026-04-28 15:24 52.97411 -1.58745 18756 ft 385 kts 335°
2026-04-28 15:24 52.99681 -1.61085 18171 ft 383 kts 334°
2026-04-28 15:24 53.01939 -1.63417 17556 ft 380 kts 334°
2026-04-28 15:24 53.04180 -1.65722 16990 ft 377 kts 335°
2026-04-28 15:25 53.06482 -1.67717 16437 ft 370 kts 342°
2026-04-28 15:25 53.08865 -1.69225 15874 ft 364 kts 346°
2026-04-28 15:25 53.11242 -1.70644 15340 ft 362 kts 345°
2026-04-28 15:25 53.13597 -1.72078 14806 ft 360 kts 345°
2026-04-28 15:26 53.15937 -1.73523 14285 ft 358 kts 345°
2026-04-28 15:26 53.18262 -1.74967 13709 ft 356 kts 344°
2026-04-28 15:26 53.20574 -1.76405 13127 ft 354 kts 344°
2026-04-28 15:26 53.22872 -1.77836 12553 ft 351 kts 344°
2026-04-28 15:27 53.25153 -1.79257 11972 ft 349 kts 344°
2026-04-28 15:27 53.27421 -1.80672 11440 ft 347 kts 344°
2026-04-28 15:27 53.29674 -1.82078 10889 ft 344 kts 344°
2026-04-28 15:27 53.31913 -1.83476 10371 ft 342 kts 344°
2026-04-28 15:28 53.34133 -1.84864 9771 ft 339 kts 344°
2026-04-28 15:28 53.36337 -1.86245 9227 ft 337 kts 343°
2026-04-28 15:28 53.38445 -1.87570 8616 ft 316 kts 343°
2026-04-28 15:28 53.40443 -1.88835 8017 ft 293 kts 344°
2026-04-28 15:29 53.42283 -1.89996 7597 ft 270 kts 345°
2026-04-28 15:29 53.43960 -1.91051 7323 ft 246 kts 345°
2026-04-28 15:29 53.45503 -1.92019 7034 ft 228 kts 345°
2026-04-28 15:29 53.46933 -1.92918 6760 ft 218 kts 345°
2026-04-28 15:30 53.48363 -1.93816 6520 ft 216 kts 345°
2026-04-28 15:30 53.49771 -1.94701 6547 ft 218 kts 346°
2026-04-28 15:30 53.51197 -1.95591 6448 ft 224 kts 347°
2026-04-28 15:30 53.52678 -1.95916 6173 ft 209 kts 14°
2026-04-28 15:31 53.54074 -1.95398 6134 ft 206 kts 18°
2026-04-28 15:31 53.55473 -1.94881 6038 ft 206 kts 18°
2026-04-28 15:31 53.56871 -1.94369 5917 ft 206 kts 18°
2026-04-28 15:31 53.58275 -1.93856 5798 ft 206 kts 18°
2026-04-28 15:32 53.59644 -1.93359 5652 ft 196 kts 18°
2026-04-28 15:32 53.60939 -1.92894 5489 ft 186 kts 18°
2026-04-28 15:32 53.62185 -1.92445 5374 ft 181 kts 19°
2026-04-28 15:32 53.63407 -1.92000 5219 ft 179 kts 19°
2026-04-28 15:33 53.64631 -1.91554 5077 ft 180 kts 20°
2026-04-28 15:33 53.65855 -1.91110 4987 ft 180 kts 18°
2026-04-28 15:33 53.67084 -1.90659 4851 ft 181 kts 19°
2026-04-28 15:33 53.68317 -1.90209 4729 ft 181 kts 19°
2026-04-28 15:34 53.69536 -1.89766 4594 ft 178 kts 18°
2026-04-28 15:34 53.70739 -1.89331 4462 ft 176 kts 17°
2026-04-28 15:34 53.71934 -1.88898 4319 ft 174 kts 19°
2026-04-28 15:34 53.73117 -1.88466 4188 ft 175 kts 17°
2026-04-28 15:35 53.74309 -1.88031 4053 ft 175 kts 18°
2026-04-28 15:35 53.76691 -1.87159 3803 ft 174 kts 18°
2026-04-28 15:35 53.77851 -1.86733 3652 ft 166 kts 18°
2026-04-28 15:36 53.78946 -1.86342 3513 ft 156 kts 16°
2026-04-28 15:36 53.79987 -1.85967 3352 ft 149 kts 18°
2026-04-28 15:36 53.81002 -1.85595 3220 ft 150 kts 18°
2026-04-28 15:36 53.82026 -1.85219 3160 ft 152 kts 19°
2026-04-28 15:37 53.83052 -1.84844 3029 ft 150 kts 18°
2026-04-28 15:37 53.84066 -1.84473 2896 ft 148 kts 17°
2026-04-28 15:37 53.85089 -1.84094 2780 ft 151 kts 18°
2026-04-28 15:37 53.86104 -1.83725 2670 ft 149 kts 18°
2026-04-28 15:38 53.87110 -1.83359 2612 ft 149 kts 17°
2026-04-28 15:38 53.88131 -1.82985 2625 ft 151 kts 18°
2026-04-28 15:38 53.89157 -1.82608 2609 ft 150 kts 18°
2026-04-28 15:38 53.90166 -1.82239 2601 ft 148 kts 19°
2026-04-28 15:39 53.91201 -1.81856 2602 ft 154 kts 18°
2026-04-28 15:39 53.92222 -1.81474 2606 ft 146 kts 21°
2026-04-28 15:39 53.92984 -1.80587 2591 ft 126 kts 55°
2026-04-28 15:39 53.93412 -1.79270 2593 ft 130 kts 68°
2026-04-28 15:40 53.93655 -1.77808 2588 ft 132 kts 90°
2026-04-28 15:40 53.93200 -1.76426 2608 ft 144 kts 128°
2026-04-28 15:40 53.92489 -1.75193 2420 ft 148 kts 128°
2026-04-28 15:40 53.91748 -1.74003 2187 ft 144 kts 129°
2026-04-28 15:41 53.91022 -1.72880 1945 ft 140 kts 129°
2026-04-28 15:41 53.90291 -1.71753 1739 ft 142 kts 131°
2026-04-28 15:41 53.89560 -1.70628 1479 ft 143 kts 131°
2026-04-28 15:41 53.88816 -1.69494 1182 ft 146 kts 133°
2026-04-28 15:42 53.88060 -1.68329 952 ft 148 kts 134°
2026-04-28 15:42 53.87302 -1.67156 753 ft 147 kts 134°
2026-04-28 15:42 53.86586 -1.66036 672 ft 130 kts 137°
2026-04-28 15:42 53.86115 -1.65317 680 ft 38 kts 138°
2026-04-28 15:43 53.85966 -1.65090 675 ft 19 kts 136°
2026-04-28 15:43 53.85907 -1.64934 669 ft 8 kts 139°
2026-04-28 15:43 53.85880 -1.64972 668 ft 6 kts 290°
2026-04-28 15:43 53.85923 -1.65037 670 ft 13 kts 319°
2026-04-28 15:44 53.86009 -1.65166 678 ft 18 kts 318°
2026-04-28 15:44 53.86130 -1.65349 679 ft 24 kts 317°
2026-04-28 15:44 53.86278 -1.65462 682 ft 21 kts
2026-04-28 15:44 53.86403 -1.65450 676 ft 21 kts
2026-04-28 15:45 53.86545 -1.65434 672 ft 19 kts
2026-04-28 15:45 53.86672 -1.65419 666 ft 17 kts
2026-04-28 15:45 53.86731 -1.65304 662 ft 12 kts 97°
2026-04-28 15:45 53.86701 -1.65252 660 ft 5 kts 166°
2026-04-28 15:46 53.86663 -1.65252 659 ft 2 kts 182°
2026-04-28 15:46 53.86656 -1.65252 659 ft 0 kts 182°